Regional Weather Roundup
Issued by NWS Charleston, WV

Home | Current Version | Previous Version | Graphics & Text | Print | Product List | Glossary On
Versions: 1 2 3 4 5 6 7 8 9 10 11 12 13 14 15 16 17 18 19 20 21 22 23 24 25 26 27 28 29 30 31 32 33 34 35 36 37 38 39 40 41 42 43 44 45 46 47 48 49 50
000
ASUS41 KRLX 051710
RWRRLX
West Virginia Regional Weather Roundup
National Weather Service Charleston WV
100 PM EDT TUE MAY 05 2015

Note: "fair" indicates few or no clouds below 12,000 feet with no
significant weather and/or obstructions to visibility.

WVZ003-051800-
Northern Panhandle of West Virginia

CITY           SKY/WX    TMP DP  RH WIND       PRES   REMARKS
WHEELING       CLOUDY    67  59  75 CALM      30.29F
$$

WVZ009-051800-
Northwest West Virginia

CITY           SKY/WX    TMP DP  RH WIND       PRES   REMARKS
PARKERSBURG    PTSUNNY   77  58  51 N7        30.31F
$$

WVZ006-051800-
Western West Virginia

CITY           SKY/WX    TMP DP  RH WIND       PRES   REMARKS
HUNTINGTON     MOSUNNY   81  55  40 VRB6      30.28F
$$

WVZ015-051800-
West Central West Virginia

CITY           SKY/WX    TMP DP  RH WIND       PRES   REMARKS
CHARLESTON     MOSUNNY   81  54  39 SW9       30.29F
$$

WVZ022-031-051800-
North Central West Virginia

CITY           SKY/WX    TMP DP  RH WIND       PRES   REMARKS
CLARKSBURG     SUNNY     78  58  49 SW7       30.28F
MORGANTOWN     MOSUNNY   76  52  43 NW5       30.30F
$$

WVZ025-035-042-045-051800-
Southern West Virginia

CITY           SKY/WX    TMP DP  RH WIND       PRES   REMARKS
BECKLEY        MOSUNNY   77  50  38 N7        30.35F
LOGAN            N/A     79  54  41 N5        30.29F
BLUEFIELD      MOSUNNY   77  47  34 VRB7      30.37F
LEWISBURG      CLOUDY    76  48  37 CALM      30.34S
$$

WVZ047-051800-
Northern Mountains of West Virginia

CITY           SKY/WX    TMP DP  RH WIND       PRES   REMARKS
ELKINS         PTSUNNY   72  55  55 VRB3      30.33F
$$

WVZ052-051800-
Eastern Panhandle of West Virginia

CITY           SKY/WX    TMP DP  RH WIND       PRES   REMARKS
MARTINSBURG    MOSUNNY   80  58  46 VRB7      30.26F
PETERSBURG     PTSUNNY   82  54  38 NW3       30.27F
$$


USA.gov is the U.S. government's official web portal to all federal, state and local government web resources and services.